Location: Voyageurs National Park
(48.5020°N, 92.9292°W)
Time: 09:36:52
(UTC-06:00)

Cosmos 332 Rocket - Pass Details

Date: 19 January 2018
Orbit: 682 x 704 km, 74.0° (Epoch: 24 February)

Event Time Altitude Azimuth Distance (km) Brightness Sun altitude
Exits shadow 06:10:33 29° 296° (WNW) 1,269 4.6 -17.0°
Maximum altitude 06:12:08 38° 257° (WSW) 1,077 4.3 -16.7°
Drops below altitude 10° 06:16:36 10° 190° (S) 2,155 6.4 -16.0°
Sets 06:19:02 0° 182° (S) 3,064 7.3 -15.6°
